Regional Weather Roundup
Issued by NWS

Home | Current Version | Previous Version | Text Only | Print | Product List | Glossary On
Versions: 1 2 3 4 5 6 7 8 9 10 11 12 13 14 15 16 17 18 19 20 21 22 23 24 25 26 27 28 29 30 31 32 33 34 35 36 37 38 39 40 41 42 43 44 45 46 47 48 49 50
057
ASUS44 KJAN 270120
RWRMS

MISSISSIPPI HOURLY WEATHER ROUNDUP
NATIONAL WEATHER SERVICE JACKSON MS
800 PM CDT TUE JUL 26 2016

NOTE: "FAIR: INDICATES FEW OR NO CLOUDS BELOW 12,000 FEET WITH NO
SIGNIFICANT WEATHER AND/OR OBSTRUCTIONS TO VISIBILITY.

MSZ001>002-007>008-010>013-018>021-025>028-034>036-270200-
NORTHWEST MISSISSIPPI

CITY           SKY/WX    TMP DP  RH WIND       PRES   REMARKS
CLEVELAND      FAIR      85  79  81 N3        29.90S HX  98
GREENWOOD      CLOUDY    84  71  65 S6        29.92R
GREENVILLE     PTCLDY    85  71  63 S9        29.91R HX  90
OXFORD         FAIR      84  72  65 CALM      29.95F
WINONA         CLOUDY    81  74  81 S8        29.94R
$$

MSZ003>006-009-014>017-022>024-029>033-037>039-270200-
NORTHEAST MISSISSIPPI

CITY           SKY/WX    TMP DP  RH WIND       PRES   REMARKS
ABERDEEN       FAIR      88  70  55 S9        29.94S HX  92
COLUMBUS AFB   PTCLDY    87  76  69 S7        29.92S HX  97
GOLDN TRIANGLE PTCLDY    84  68  58 SE13      29.93F
TUPELO         CLEAR     88  67  49 SE6       29.93R HX  91
$$

MSZ040-058-270200-
CENTRAL MISSISSIPPI

CITY           SKY/WX    TMP DP  RH WIND       PRES   REMARKS
JACKSON INTL   CLOUDY    79  76  90 SW5       29.93S
JACKSON HAWKNS CLOUDY    78  76  93 SE3       29.94S
MADISON        FAIR      79  73  83 CALM      29.93S
MERIDIAN KEY   CLOUDY    82  76  81 SE5       29.93F
MERIDIAN NAS   MOCLDY    81  75  82 SE3       29.94S
VICKSBURG VKS  PTCLDY    77  75  94 CALM      29.92F
$$

MSZ059>079-270200-
SOUTH MISSISSIPPI

CITY           SKY/WX    TMP DP  RH WIND       PRES   REMARKS
BROOKHAVEN     FAIR     N/A N/A N/A SE3       29.94F
COLUMBIA       FAIR      75  75 100 CALM      29.97S
HATTIESBURG    CLOUDY    79  76  90 SW6       29.95R
MCCOMB         CLOUDY    75  73  93 SE3       29.93S
NATCHEZ        CLOUDY    75  72  88 CALM      29.91F
PINE BELT      CLOUDY    73  72  94 S5        29.95S
$$

MSZ080>082-270200-
COASTAL MISSISSIPPI

CITY           SKY/WX    TMP DP  RH WIND       PRES   REMARKS
BILOXI         CLOUDY    78  76  95 W6        29.94S
PASCAGOULA     CLOUDY    78  78 100 W5        29.95S
GULFPORT       MOCLDY    77  76  96 W3        29.94S
$$

LAZ007>009-015>016-023>026-270200-
NORTHEAST LOUISIANA

CITY           SKY/WX    TMP DP  RH WIND       PRES   REMARKS
BASTROP        FAIR      80  74  83 S5        29.94R
TALLULAH/VBURG CLOUDY    78  74  87 CALM      29.92S
VIDALIA        LGT RAIN  76  75  95 CALM      29.94F
$$




USA.gov is the U.S. government's official web portal to all federal, state and local government web resources and services.